K9UO Weather Reports


time (UTC)temp
C
wind
direction
speed
KPH
gust
KPH
rain 1hr
cm
rain 24hr
cm
rain mn
cm
humidity
%
barometer
mb
20260905015514 24 167 0.0 3.2 0.00 0.00 0.00 87 1014.2
20260905015016 25 164 0.0 3.2 0.00 0.00 0.00 86 1014.3
20260905014536 25 164 0.0 0.0 0.00 0.00 0.00 86 1014.2
20260905014016 25 164 0.0 3.2 0.00 0.00 0.00 86 1014.1
20260905013518 25 164 0.0 3.2 0.00 0.00 0.00 86 1014.2
20260905013014 25 164 0.0 3.2 0.00 0.00 0.00 86 1014.1
20260905012506 25 164 0.0 3.2 0.00 0.00 0.00 86 1014.2
20260905012010 25 164 0.0 3.2 0.00 0.00 0.00 85 1014.2
20260905011519 25 164 1.6 3.2 0.00 0.00 0.00 85 1014.2
20260905011015 25 164 0.0 0.0 0.00 0.00 0.00 85 1014.1
20260905010511 25 164 0.0 0.0 0.00 0.00 0.00 84 1014.0
20260905010028 25 164 0.0 0.0 0.00 0.00 0.00 84 1014.1
20260905005513 25 164 0.0 0.0 0.00 0.00 0.00 84 1014.1
20260905005014 25 164 0.0 3.2 0.00 0.00 0.00 84 1014.0
20260905004539 25 164 0.0 3.2 0.00 0.00 0.00 84 1014.0
20260905004014 25 164 0.0 1.6 0.00 0.00 0.00 84 1014.0
20260905003521 26 164 0.0 1.6 0.00 0.00 0.00 84 1014.0
20260905003034 26 164 1.6 4.8 0.00 0.00 0.00 84 1014.1
20260905002517 26 164 1.6 4.8 0.00 0.00 0.00 83 1014.1
20260905002006 26 232 0.0 1.6 0.00 0.00 0.00 82 1014.1
20260905001543 27 232 0.0 1.6 0.00 0.00 0.00 81 1014.1
20260905001016 27 232 0.0 0.0 0.00 0.00 0.00 80 1014.0
20260905000511 27 232 0.0 0.0 0.00 0.00 0.00 79 1014.0
20260905000027 27 232 0.0 3.2 0.00 0.00 0.00 79 1014.0
20260904235513 27 232 0.0 3.2 0.00 0.00 0.00 78 1013.9
20260904235012 27 223 0.0 3.2 0.00 0.00 0.00 78 1013.9
20260904234537 27 223 1.6 3.2 0.00 0.00 0.00 78 1014.0
20260904234006 27 224 1.6 3.2 0.00 0.00 0.00 77 1013.9
20260904233503 28 217 0.0 3.2 0.00 0.00 0.00 76 1014.0
20260904233035 28 227 0.0 4.8 0.00 0.00 0.00 76 1014.0
20260904232507 28 220 1.6 4.8 0.00 0.00 0.00 75 1013.9
20260904232007 28 196 3.2 8.0 0.00 0.00 0.00 75 1013.9
20260904231533 28 225 1.6 8.0 0.00 0.00 0.00 74 1014.0
20260904231010 28 220 3.2 8.0 0.00 0.00 0.00 73 1013.9
20260904230511 28 184 3.2 6.4 0.00 0.00 0.00 73 1013.9
20260904230027 28 198 1.6 8.0 0.00 0.00 0.00 72 1013.9
20260904225503 29 163 3.2 8.0 0.00 0.00 0.00 71 1013.9
20260904225003 29 186 1.6 8.0 0.00 0.00 0.00 71 1013.9
20260904224506 29 183 4.8 8.0 0.00 0.00 0.00 71 1013.9
20260904224004 29 220 3.2 8.0 0.00 0.00 0.00 70 1014.1
20260904223505 29 219 4.8 8.0 0.00 0.00 0.00 69 1014.2
20260904223006 28 197 3.2 8.0 0.00 0.00 0.00 69 1014.2
20260904222503 28 211 3.2 8.0 0.00 0.00 0.00 67 1014.2
20260904222005 28 146 4.8 12.9 0.00 0.00 0.00 67 1014.2
20260904221529 28 207 3.2 12.9 0.00 0.00 0.00 66 1014.2
20260904221009 28 223 3.2 8.0 0.00 0.00 0.00 68 1014.2
20260904220509 28 140 3.2 9.7 0.00 0.00 0.00 67 1014.3
20260904220020 28 128 1.6 9.7 0.00 0.00 0.00 69 1014.3
20260904215511 28 192 3.2 8.0 0.00 0.00 0.00 69 1014.2
20260904215013 28 151 4.8 9.7 0.00 0.00 0.00 69 1014.3
20260904214503 28 139 3.2 16.1 0.00 0.00 0.00 72 1014.3
20260904214003 28 171 4.8 16.1 0.00 0.00 0.00 71 1014.3
20260904213503 28 192 8.0 16.1 0.00 0.00 0.00 69 1014.1
20260904213015 28 144 6.4 17.7 0.00 0.00 0.00 71 1014.1
20260904212504 28 134 4.8 17.7 0.00 0.00 0.00 75 1014.3
20260904212006 28 150 6.4 12.9 0.00 0.00 0.00 75 1014.1
20260904211526 28 144 8.0 12.9 0.00 0.00 0.00 75 1014.1
20260904211007 28 196 4.8 12.9 0.00 0.00 0.00 77 1014.2
20260904210506 28 173 6.4 12.9 0.00 0.00 0.00 75 1014.2
20260904210016 27 153 4.8 12.9 0.00 0.00 0.00 76 1014.1
20260904205510 27 144 4.8 14.5 0.00 0.00 0.00 76 1014.0
20260904205011 27 123 4.8 14.5 0.00 0.00 0.00 78 1013.9
20260904204526 27 109 4.8 14.5 0.00 0.00 0.00 78 1013.8
20260904204012 27 156 8.0 17.7 0.00 0.00 0.00 78 1013.8
20260904203503 27 142 9.7 17.7 0.00 0.00 0.00 76 1014.0
20260904203005 27 136 8.0 14.5 0.00 0.00 0.00 75 1014.3
20260904202505 27 144 6.4 19.3 0.00 0.00 0.00 76 1014.5
20260904202003 28 146 12.9 19.3 0.00 0.00 0.00 73 1014.6
20260904201508 28 76 3.2 16.1 0.00 0.00 0.00 74 1014.8
20260904201005 27 144 9.7 16.1 0.00 0.00 0.00 74 1015.1
20260904200510 27 105 4.8 9.7 0.00 0.00 0.00 77 1015.3
20260904200016 26 101 3.2 4.8 0.00 0.00 0.00 78 1015.4
20260904195510 26 108 3.2 11.3 0.00 0.00 0.00 78 1015.3
20260904195012 26 65 3.2 11.3 0.00 0.00 0.00 78 1015.4
20260904194529 27 136 4.8 12.9 0.00 0.00 0.00 78 1015.3
20260904194013 27 111 3.2 12.9 0.00 0.00 0.00 78 1015.7
20260904193512 27 71 6.4 12.9 0.00 0.00 0.00 78 1015.8
20260904193029 27 66 6.4 17.7 0.00 0.00 0.00 78 1016.0
20260904192502 27 71 8.0 17.7 0.00 0.00 0.00 78 1016.2
20260904192003 27 57 9.7 19.3 0.00 0.00 0.00 76 1016.4
20260904191506 27 48 11.3 19.3 0.00 0.00 0.00 76 1016.5
20260904191006 27 69 8.0 19.3 0.00 0.00 0.00 78 1016.5
20260904190506 27 79 11.3 19.3 0.00 0.00 0.00 76 1016.3
20260904190019 27 41 4.8 22.5 0.00 0.00 0.00 78 1016.5
20260904185508 27 68 12.9 22.5 0.00 0.00 0.00 78 1016.4
20260904185009 27 56 6.4 16.1 0.00 0.00 0.00 79 1016.1
20260904184530 27 49 6.4 12.9 0.00 0.00 0.00 79 1016.3
20260904184012 27 50 4.8 17.7 0.00 0.00 0.00 79 1016.6
20260904183512 27 38 4.8 25.7 0.00 0.00 0.00 78 1017.0
20260904183027 27 48 9.7 25.7 0.00 0.00 0.00 78 1017.1
20260904182516 27 46 4.8 9.7 0.00 0.00 0.00 79 1017.1
20260904182018 27 41 3.2 8.0 0.00 0.00 0.00 80 1016.7
20260904181514 27 32 4.8 8.0 0.00 0.00 0.00 79 1016.3
20260904181008 27 32 4.8 19.3 0.00 0.00 0.00 77 1016.2
20260904180503 28 43 4.8 19.3 0.00 0.00 0.00 75 1016.2
20260904180009 29 76 4.8 16.1 0.00 0.00 0.00 71 1016.3
20260904175508 31 65 4.8 9.7 0.00 0.00 0.00 66 1016.2
20260904175007 32 344 4.8 12.9 0.00 0.00 0.00 61 1016.0
20260904174516 32 311 6.4 14.5 0.00 0.00 0.00 59 1015.9
20260904174009 32 332 6.4 16.1 0.00 0.00 0.00 59 1016.1
20260904173515 32 327 9.7 16.1 0.00 0.00 0.00 56 1016.0
20260904173043 33 342 6.4 14.5 0.00 0.00 0.00 58 1016.1
20260904172513 33 305 4.8 12.9 0.00 0.00 0.00 58 1016.1
20260904172012 33 337 4.8 12.9 0.00 0.00 0.00 58 1016.1
20260904171531 32 327 4.8 12.9 0.00 0.00 0.00 59 1016.1
20260904171016 32 300 3.2 9.7 0.00 0.00 0.00 58 1016.2
20260904170504 32 240 4.8 12.9 0.00 0.00 0.00 59 1016.3
20260904170010 32 333 4.8 12.9 0.00 0.00 0.00 58 1016.4
20260904165504 32 5 6.4 14.5 0.00 0.00 0.00 59 1016.5
20260904165005 32 342 9.7 14.5 0.00 0.00 0.00 57 1016.6
20260904164528 32 298 6.4 14.5 0.00 0.00 0.00 58 1016.7
20260904164008 32 321 4.8 14.5 0.00 0.00 0.00 58 1016.7
20260904163507 32 348 6.4 14.5 0.00 0.00 0.00 58 1016.7
20260904163021 32 325 4.8 17.7 0.00 0.00 0.00 59 1016.7
20260904162510 32 328 4.8 17.7 0.00 0.00 0.00 59 1016.7
20260904162013 32 352 6.4 14.5 0.00 0.00 0.00 59 1016.8
20260904161531 32 321 8.0 14.5 0.00 0.00 0.00 60 1016.8
20260904161015 32 296 6.4 12.9 0.00 0.00 0.00 60 1016.7
20260904160513 32 230 3.2 12.9 0.00 0.00 0.00 62 1016.7
20260904160032 31 329 6.4 12.9 0.00 0.00 0.00 62 1016.7
20260904155504 31 304 4.8 9.7 0.00 0.00 0.00 61 1016.7
20260904155004 31 327 3.2 9.7 0.00 0.00 0.00 63 1016.7
20260904154512 31 9 6.4 14.5 0.00 0.00 0.00 64 1016.7
20260904154008 31 273 8.0 14.5 0.00 0.00 0.00 64 1016.7
20260904153512 31 316 3.2 11.3 0.00 0.00 0.00 66 1016.7
20260904153016 31 318 6.4 11.3 0.00 0.00 0.00 65 1016.6
20260904152511 31 290 4.8 14.5 0.00 0.00 0.00 66 1016.6
20260904152015 31 322 4.8 14.5 0.00 0.00 0.00 67 1016.6
20260904151526 30 307 6.4 9.7 0.00 0.00 0.00 67 1016.6
20260904151014 30 341 4.8 8.0 0.00 0.00 0.00 68 1016.6
20260904150512 30 340 3.2 12.9 0.00 0.00 0.00 67 1016.6
20260904150034 30 318 4.8 14.5 0.00 0.00 0.00 68 1016.6
20260904145514 30 269 4.8 16.1 0.00 0.00 0.00 67 1016.6
20260904145014 30 318 6.4 16.1 0.00 0.00 0.00 68 1016.5
20260904144508 30 341 4.8 8.0 0.00 0.00 0.00 69 1016.4
20260904144007 29 304 1.6 9.7 0.00 0.00 0.00 69 1016.3
20260904143507 29 317 3.2 9.7 0.00 0.00 0.00 70 1016.3
20260904143016 29 325 3.2 8.0 0.00 0.00 0.00 71 1016.3
20260904142509 29 206 3.2 8.0 0.00 0.00 0.00 70 1016.3
20260904142012 28 334 4.8 8.0 0.00 0.00 0.00 70 1016.3
20260904141534 28 255 3.2 8.0 0.00 0.00 0.00 71 1016.3
20260904141013 28 230 1.6 6.4 0.00 0.00 0.00 72 1016.3
20260904140516 28 316 3.2 6.4 0.00 0.00 0.00 72 1016.3
20260904140003 28 233 1.6 6.4 0.00 0.00 0.00 73 1016.3
20260904135507 28 333 1.6 6.4 0.00 0.00 0.00 73 1016.3
20260904135004 28 213 1.6 8.0 0.00 0.00 0.00 73 1016.3
20260904134507 28 211 3.2 14.5 0.00 0.00 0.00 74 1016.2
20260904134007 27 313 3.2 14.5 0.00 0.00 0.00 73 1016.2
20260904133503 27 211 4.8 11.3 0.00 0.00 0.00 74 1016.2
20260904133018 27 279 3.2 11.3 0.00 0.00 0.00 75 1016.1
20260904132511 27 342 3.2 8.0 0.00 0.00 0.00 76 1016.1
20260904132011 27 207 3.2 8.0 0.00 0.00 0.00 77 1016.2
20260904131532 26 240 3.2 6.4 0.00 0.00 0.00 77 1016.1
20260904131011 26 238 3.2 6.4 0.00 0.00 0.00 79 1016.1
20260904130513 26 255 0.0 6.4 0.00 0.00 0.00 80 1016.1
20260904130028 26 201 1.6 4.8 0.00 0.00 0.00 80 1016.1
20260904125513 26 221 1.6 4.8 0.00 0.00 0.00 81 1016.1
20260904125003 25 200 3.2 4.8 0.00 0.00 0.00 81 1016.2
20260904124507 25 193 3.2 4.8 0.00 0.00 0.00 82 1016.3
20260904124004 25 211 1.6 3.2 0.00 0.00 0.00 82 1016.2
20260904123508 25 207 0.0 3.2 0.00 0.00 0.00 82 1016.2
20260904123011 25 207 1.6 3.2 0.00 0.00 0.00 82 1016.3
20260904122507 25 214 1.6 3.2 0.00 0.00 0.00 82 1016.3
20260904122013 25 217 1.6 1.6 0.00 0.00 0.00 82 1016.3
20260904121519 24 217 1.6 3.2 0.00 0.00 0.00 82 1016.3
20260904121011 24 217 0.0 3.2 0.00 0.00 0.00 82 1016.3
20260904120510 24 217 0.0 3.2 0.00 0.00 0.00 82 1016.2
20260904120026 24 217 0.0 3.2 0.00 0.00 0.00 82 1016.2
20260904115514 24 217 0.0 3.2 0.00 0.00 0.00 82 1016.1
20260904115015 24 217 1.6 3.2 0.00 0.00 0.00 82 1016.1
20260904114530 24 205 0.0 3.2 0.00 0.00 0.00 82 1015.9
20260904114004 24 215 0.0 3.2 0.00 0.00 0.00 82 1015.9
20260904113506 24 215 0.0 3.2 0.00 0.00 0.00 1015.7
20260904113009 24 215 1.6 3.2 0.00 0.00 0.00 81 1015.6
20260904112506 24 225 1.6 3.2 0.00 0.00 0.00 81 1015.5
20260904112007 24 209 1.6 6.4 0.00 0.00 0.00 80 1015.4
20260904111513 25 233 1.6 8.0 0.00 0.00 0.00 80 1015.2
20260904111008 25 220 3.2 9.7 0.00 0.00 0.00 80 1014.9
20260904110512 24 221 3.2 9.7 0.00 0.00 0.00 81 1014.7
20260904110025 24 219 4.8 9.7 0.00 0.00 0.00 81 1014.7
20260904105515 24 211 3.2 6.4 0.00 0.00 0.00 81 1014.8
20260904105013 24 209 1.6 4.8 0.00 0.00 0.00 81 1014.9
20260904104534 24 197 1.6 3.2 0.00 0.00 0.00 81 1014.9
20260904104016 24 215 0.0 3.2 0.00 0.00 0.00 81 1014.9
20260904103517 24 215 1.6 3.2 0.00 0.00 0.00 81 1014.9
20260904103008 24 230 1.6 3.2 0.00 0.00 0.00 81 1014.8
20260904102504 24 218 1.6 3.2 0.00 0.00 0.00 81 1014.8
20260904102006 24 219 0.0 3.2 0.00 0.00 0.00 81 1014.9
20260904101514 24 215 0.0 3.2 0.00 0.00 0.00 81 1014.7
20260904101007 24 215 1.6 3.2 0.00 0.00 0.00 81 1014.8
20260904100508 24 215 0.0 3.2 0.00 0.00 0.00 81 1014.9
20260904100018 24 215 1.6 3.2 0.00 0.00 0.00 81 1014.9
20260904095511 24 257 1.6 1.6 0.00 0.00 0.00 81 1014.9
20260904095013 24 273 0.0 3.2 0.00 0.00 0.00 81 1015.0
20260904094534 24 272 0.0 3.2 0.00 0.00 0.00 81 1015.0
20260904094012 24 273 0.0 3.2 0.00 0.00 0.00 81 1015.0
20260904093516 24 222 0.0 4.8 0.00 0.00 0.00 80 1015.0
20260904093031 25 220 0.0 4.8 0.00 0.00 0.00 80 1014.9
20260904092515 25 205 1.6 4.8 0.00 0.00 0.00 80 1014.9
20260904092004 25 211 1.6 4.8 0.00 0.00 0.00 80 1015.0
20260904091525 25 227 1.6 4.8 0.00 0.00 0.00 80 1015.1
20260904091006 25 217 1.6 4.8 0.00 0.00 0.00 80 1014.8
20260904090509 25 205 1.6 6.4 0.00 0.00 0.00 80 1014.7
20260904090015 25 225 3.2 6.4 0.00 0.00 0.00 79 1014.7
20260904085508 25 212 3.2 6.4 0.00 0.00 0.00 80 1014.7
20260904085013 25 216 3.2 6.4 0.00 0.00 0.00 80 1014.4
20260904084523 25 207 3.2 6.4 0.00 0.00 0.00 81 1014.4
20260904084014 25 207 3.2 6.4 0.00 0.00 0.00 81 1014.5
20260904083515 24 207 3.2 8.0 0.00 0.00 0.00 81 1014.5
20260904083033 24 215 3.2 8.0 0.00 0.00 0.00 81 1014.5
20260904082515 24 205 3.2 4.8 0.00 0.00 0.00 82 1014.6
20260904082012 24 222 1.6 4.8 0.00 0.00 0.00 83 1014.7
20260904081533 24 209 1.6 6.4 0.00 0.00 0.00 83 1014.8
20260904081004 24 194 3.2 6.4 0.00 0.00 0.00 1014.7
20260904080503 24 194 3.2 4.8 0.00 0.00 0.00 84 1014.9
20260904080014 23 202 3.2 3.2 0.00 0.00 0.00 84 1015.0
20260904075508 23 204 1.6 4.8 0.00 0.00 0.00 84 1015.1
20260904075011 23 204 3.2 4.8 0.00 0.00 0.00 84 1015.1
20260904074532 23 202 1.6 3.2 0.00 0.00 0.00 85 1015.1
20260904074013 23 202 1.6 4.8 0.00 0.00 0.00 85 1015.2
20260904073512 23 212 1.6 4.8 0.00 0.00 0.00 85 1015.2
20260904073031 23 200 1.6 3.2 0.00 0.00 0.00 86 1015.3
20260904072516 23 200 0.0 3.2 0.00 0.00 0.00 86 1015.4
20260904072014 23 200 1.6 3.2 0.00 0.00 0.00 86 1015.4
20260904071546 23 200 1.6 3.2 0.00 0.00 0.00 86 1015.4
20260904071019 23 200 1.6 3.2 0.00 0.00 0.00 86 1015.5
20260904070516 23 200 1.6 3.2 0.00 0.00 0.00 86 1015.6
20260904070011 23 200 0.0 1.6 0.00 0.00 0.00 86 1015.6
20260904065507 23 200 1.6 3.2 0.00 0.00 0.00 85 1015.7
20260904065007 23 200 0.0 3.2 0.00 0.00 0.00 86 1015.6
20260904064516 23 200 0.0 3.2 0.00 0.00 0.00 86 1015.7
20260904064008 23 200 0.0 3.2 0.00 0.00 0.00 86 1015.7
20260904063512 22 200 0.0 4.8 0.00 0.00 0.00 86 1015.7
20260904063037 22 200 1.6 4.8 0.00 0.00 0.00 86 1015.6
20260904062513 22 199 1.6 4.8 0.00 0.00 0.00 86 1015.6
20260904062015 22 205 1.6 3.2 0.00 0.00 0.00 86 1015.7
20260904061530 22 205 0.0 3.2 0.00 0.00 0.00 87 1015.8
20260904061018 22 205 0.0 3.2 0.00 0.00 0.00 86 1015.8
20260904060519 22 205 0.0 3.2 0.00 0.00 0.00 86 1015.9
20260904060033 22 205 0.0 3.2 0.00 0.00 0.00 86 1015.9
20260904055521 22 205 1.6 4.8 0.00 0.00 0.00 86 1016.0
20260904055007 22 195 3.2 4.8 0.00 0.00 0.00 86 1015.9
20260904054515 22 214 0.0 3.2 0.00 0.00 0.00 86 1016.0
20260904054001 22 206 1.6 3.2 0.00 0.00 0.00 86 1016.0
20260904053502 22 206 0.0 3.2 0.00 0.00 0.00 85 1016.0
20260904053005 22 206 1.6 3.2 0.00 0.00 0.00 86 1016.0
20260904052503 22 206 1.6 1.6 0.00 0.00 0.00 85 1016.1
20260904052003 22 206 0.0 3.2 0.00 0.00 0.00 85 1016.0
20260904051504 22 206 0.0 3.2 0.00 0.00 0.00 86 1016.1
20260904051003 22 206 0.0 4.8 0.00 0.00 0.00 86 1016.0
20260904050504 22 202 1.6 4.8 0.00 0.00 0.00 86 1016.0
20260904050003 22 180 0.0 3.2 0.00 0.00 0.00 86 1016.1
20260904045505 22 180 0.0 4.8 0.00 0.00 0.00 86 1016.0
20260904045003 22 190 0.0 4.8 0.00 0.00 0.00 86 1016.0
20260904044504 22 190 1.6 4.8 0.00 0.00 0.00 86 1016.0
20260904044003 22 205 1.6 3.2 0.00 0.00 0.00 87 1016.0
20260904043502 22 205 0.0 3.2 0.00 0.00 0.00 86 1015.9
20260904043003 22 205 0.0 3.2 0.00 0.00 0.00 86 1016.0
20260904042504 22 205 0.0 3.2 0.00 0.00 0.00 86 1015.9
20260904042003 22 205 0.0 3.2 0.00 0.00 0.00 86 1016.0
20260904041508 22 205 0.0 3.2 0.00 0.00 0.00 85 1016.0
20260904041002 22 205 0.0 3.2 0.00 0.00 0.00 85 1015.9
20260904040502 22 205 0.0 3.2 0.00 0.00 0.00 85 1015.9
20260904040004 22 205 1.6 3.2 0.00 0.00 0.00 85 1015.9
20260904035506 22 205 1.6 1.6 0.00 0.00 0.00 84 1015.8
20260904035003 22 135 0.0 3.2 0.00 0.00 0.00 84 1015.8
20260904034503 22 135 1.6 3.2 0.00 0.00 0.00 84 1015.8
20260904034003 22 135 0.0 1.6 0.00 0.00 0.00 84 1015.8
20260904033503 22 135 0.0 3.2 0.00 0.00 0.00 84 1015.8
20260904033003 22 135 1.6 3.2 0.00 0.00 0.00 84 1015.9
20260904032503 23 135 0.0 4.8 0.00 0.00 0.00 85 1016.0
20260904032003 23 135 1.6 4.8 0.00 0.00 0.00 84 1016.1
20260904031504 23 142 3.2 4.8 0.00 0.00 0.00 84 1016.0
20260904031004 23 123 0.0 3.2 0.00 0.00 0.00 84 1016.1
20260904030503 23 123 1.6 3.2 0.00 0.00 0.00 84 1016.1
20260904030007 23 120 0.0 3.2 0.00 0.00 0.00 84 1016.0
20260904025503 23 120 1.6 4.8 0.00 0.00 0.00 84 1016.0
20260904025003 23 138 1.6 4.8 0.00 0.00 0.00 84 1016.1
20260904024503 23 142 3.2 4.8 0.00 0.00 0.00 84 1016.1
20260904024003 23 143 1.6 3.2 0.00 0.00 0.00 85 1016.2
20260904023505 23 144 1.6 6.4 0.00 0.00 0.00 85 1016.2
20260904023008 23 144 3.2 6.4 0.00 0.00 0.00 85 1016.3
20260904022505 23 135 3.2 4.8 0.00 0.00 0.00 86 1016.3
20260904022002 23 141 1.6 3.2 0.00 0.00 0.00 87 1016.3
20260904021512 23 69 1.6 4.8 0.00 0.00 0.00 86 1016.3
20260904021003 23 69 1.6 4.8 0.00 0.00 0.00 86 1016.4
20260904020503 23 74 3.2 4.8 0.00 0.00 0.00 85 1016.3